owner,sensor,date,latitude,longitude,vertical_datum,wind_speed,wind_to_direction,wind_speed_of_gust,qcFlag 
ADCP,ioos:station:wmo:42362:1,2016-12-01T00:30:00Z,27.7950,-90.6480,122.0,99.0,-9999.0,99.0,'11144222,99999999,11144222' 
ADCP,ioos:station:wmo:42362:1,2016-12-01T01:30:00Z,27.7950,-90.6480,122.0,99.0,-9999.0,99.0,'11144222,99999999,11144222' 
ADCP,ioos:station:wmo:42362:1,2016-12-01T02:30:00Z,27.7950,-90.6480,122.0,99.0,-9999.0,99.0,'11144222,99999999,11144222' 
ADCP,ioos:station:wmo:42362:1,2016-12-01T03:30:00Z,27.7950,-90.6480,122.0,99.0,-9999.0,99.0,'11144222,99999999,11144222' 
ADCP,ioos:station:wmo:42362:1,2016-12-01T04:30:00Z,27.7950,-90.6480,122.0,99.0,-9999.0,99.0,'11144222,99999999,11144222' 
ADCP,ioos:station:wmo:42362:1,2016-12-01T05:30:00Z,27.7950,-90.6480,122.0,99.0,-9999.0,99.0,'11144222,99999999,11144222' 
ADCP,ioos:station:wmo:42362:1,2016-12-01T06:30:00Z,27.7950,-90.6480,122.0,99.0,-9999.0,99.0,'11144222,99999999,11144222' 
ADCP,ioos:station:wmo:42362:1,2016-12-01T07:30:00Z,27.7950,-90.6480,122.0,99.0,-9999.0,99.0,'11144222,99999999,11144222' 
ADCP,ioos:station:wmo:42362:1,2016-12-01T08:30:00Z,27.7950,-90.6480,122.0,99.0,-9999.0,99.0,'11144222,99999999,11144222' 
ADCP,ioos:station:wmo:42362:1,2016-12-01T09:30:00Z,27.7950,-90.6480,122.0,99.0,-9999.0,99.0,'11144222,99999999,11144222' 
ADCP,ioos:station:wmo:42362:1,2016-12-01T10:30:00Z,27.7950,-90.6480,122.0,99.0,-9999.0,99.0,'11144222,99999999,11144222' 
ADCP,ioos:station:wmo:42362:1,2016-12-01T11:30:00Z,27.7950,-90.6480,122.0,99.0,-9999.0,99.0,'11144222,99999999,11144222' 
ADCP,ioos:station:wmo:42362:1,2016-12-01T12:30:00Z,27.7950,-90.6480,122.0,99.0,-9999.0,99.0,'11144222,99999999,11144222' 
ADCP,ioos:station:wmo:42362:1,2016-12-01T13:30:00Z,27.7950,-90.6480,122.0,99.0,-9999.0,99.0,'11144222,99999999,11144222' 
ADCP,ioos:station:wmo:42362:1,2016-12-01T14:30:00Z,27.7950,-90.6480,122.0,99.0,-9999.0,99.0,'11144222,99999999,11144222' 
ADCP,ioos:station:wmo:42362:1,2016-12-01T15:30:00Z,27.7950,-90.6480,122.0,99.0,-9999.0,99.0,'11144222,99999999,11144222' 
ADCP,ioos:station:wmo:42362:1,2016-12-01T16:30:00Z,27.7950,-90.6480,122.0,99.0,-9999.0,99.0,'11144222,99999999,11144222' 
ADCP,ioos:station:wmo:42362:1,2016-12-01T17:30:00Z,27.7950,-90.6480,122.0,99.0,-9999.0,99.0,'11144222,99999999,11144222' 
ADCP,ioos:station:wmo:42362:1,2016-12-01T18:30:00Z,27.7950,-90.6480,122.0,99.0,-9999.0,99.0,'11144222,99999999,11144222' 
ADCP,ioos:station:wmo:42362:1,2016-12-01T19:30:00Z,27.7950,-90.6480,122.0,99.0,-9999.0,99.0,'11144222,99999999,11144222' 
ADCP,ioos:station:wmo:42362:1,2016-12-01T20:30:00Z,27.7950,-90.6480,122.0,99.0,-9999.0,99.0,'11144222,99999999,11144222' 
ADCP,ioos:station:wmo:42362:1,2016-12-01T21:30:00Z,27.7950,-90.6480,122.0,99.0,-9999.0,99.0,'11144222,99999999,11144222' 
ADCP,ioos:station:wmo:42362:1,2016-12-01T22:30:00Z,27.7950,-90.6480,122.0,99.0,-9999.0,99.0,'11144222,99999999,11144222' 
ADCP,ioos:station:wmo:42362:1,2016-12-01T23:30:00Z,27.7950,-90.6480,122.0,99.0,-9999.0,99.0,'11144222,99999999,11144222' 
ADCP,ioos:station:wmo:42362:1,2016-12-02T00:30:00Z,27.7950,-90.6480,122.0,99.0,-9999.0,99.0,'11144222,99999999,11144222' 
ADCP,ioos:station:wmo:42362:1,2016-12-02T01:30:00Z,27.7950,-90.6480,122.0,99.0,-9999.0,99.0,'11144222,99999999,11144222' 
ADCP,ioos:station:wmo:42362:1,2016-12-02T02:30:00Z,27.7950,-90.6480,122.0,99.0,-9999.0,99.0,'11144222,99999999,11144222' 
ADCP,ioos:station:wmo:42362:1,2016-12-02T03:30:00Z,27.7950,-90.6480,122.0,99.0,-9999.0,99.0,'11144222,99999999,11144222' 
ADCP,ioos:station:wmo:42362:1,2016-12-02T04:30:00Z,27.7950,-90.6480,122.0,99.0,-9999.0,99.0,'11144222,99999999,11144222' 
ADCP,ioos:station:wmo:42362:1,2016-12-02T05:30:00Z,27.7950,-90.6480,122.0,99.0,-9999.0,99.0,'11144222,99999999,11144222' 
ADCP,ioos:station:wmo:42362:1,2016-12-02T06:30:00Z,27.7950,-90.6480,122.0,99.0,-9999.0,99.0,'11144222,99999999,11144222' 
ADCP,ioos:station:wmo:42362:1,2016-12-02T07:30:00Z,27.7950,-90.6480,122.0,99.0,-9999.0,99.0,'11144222,99999999,11144222' 
ADCP,ioos:station:wmo:42362:1,2016-12-02T08:30:00Z,27.7950,-90.6480,122.0,99.0,-9999.0,99.0,'11144222,99999999,11144222' 
ADCP,ioos:station:wmo:42362:1,2016-12-02T09:30:00Z,27.7950,-90.6480,122.0,99.0,-9999.0,99.0,'11144222,99999999,11144222' 
ADCP,ioos:station:wmo:42362:1,2016-12-02T10:30:00Z,27.7950,-90.6480,122.0,99.0,-9999.0,99.0,'11144222,99999999,11144222' 
ADCP,ioos:station:wmo:42362:1,2016-12-02T11:30:00Z,27.7950,-90.6480,122.0,99.0,-9999.0,99.0,'11144222,99999999,11144222' 
ADCP,ioos:station:wmo:42362:1,2016-12-02T12:30:00Z,27.7950,-90.6480,122.0,99.0,-9999.0,99.0,'11144222,99999999,11144222' 
ADCP,ioos:station:wmo:42362:1,2016-12-02T13:30:00Z,27.7950,-90.6480,122.0,99.0,-9999.0,99.0,'11144222,99999999,11144222' 
ADCP,ioos:station:wmo:42362:1,2016-12-02T14:30:00Z,27.7950,-90.6480,122.0,99.0,-9999.0,99.0,'11144222,99999999,11144222' 
ADCP,ioos:station:wmo:42362:1,2016-12-02T15:30:00Z,27.7950,-90.6480,122.0,99.0,-9999.0,99.0,'11144222,99999999,11144222' 
ADCP,ioos:station:wmo:42362:1,2016-12-02T16:30:00Z,27.7950,-90.6480,122.0,99.0,-9999.0,99.0,'11144222,99999999,11144222' 
ADCP,ioos:station:wmo:42362:1,2016-12-02T17:30:00Z,27.7950,-90.6480,122.0,99.0,-9999.0,99.0,'11144222,99999999,11144222' 
ADCP,ioos:station:wmo:42362:1,2016-12-02T18:30:00Z,27.7950,-90.6480,122.0,99.0,-9999.0,99.0,'11144222,99999999,11144222' 
ADCP,ioos:station:wmo:42362:1,2016-12-02T19:30:00Z,27.7950,-90.6480,122.0,99.0,-9999.0,99.0,'11144222,99999999,11144222' 
ADCP,ioos:station:wmo:42362:1,2016-12-02T20:30:00Z,27.7950,-90.6480,122.0,11.1,119.0,99.0,'11111222,11111222,11144222' 
ADCP,ioos:station:wmo:42362:1,2016-12-02T21:30:00Z,27.7950,-90.6480,122.0,12.4,111.0,99.0,'11111222,11111222,11144222' 
ADCP,ioos:station:wmo:42362:1,2016-12-02T22:30:00Z,27.7950,-90.6480,122.0,11.6,113.0,99.0,'11111222,11111222,11144222' 
ADCP,ioos:station:wmo:42362:1,2016-12-02T23:30:00Z,27.7950,-90.6480,122.0,13.0,112.0,99.0,'11111222,11111222,11144222' 
ADCP,ioos:station:wmo:42362:1,2016-12-03T00:30:00Z,27.7950,-90.6480,122.0,14.4,110.0,99.0,'11111222,11111222,11144222' 
ADCP,ioos:station:wmo:42362:1,2016-12-03T01:30:00Z,27.7950,-90.6480,122.0,13.6,115.0,99.0,'11111222,11111222,11144222' 
ADCP,ioos:station:wmo:42362:1,2016-12-03T02:30:00Z,27.7950,-90.6480,122.0,11.8,116.0,99.0,'11111222,11111222,11144222' 
ADCP,ioos:station:wmo:42362:1,2016-12-03T03:30:00Z,27.7950,-90.6480,122.0,11.4,113.0,99.0,'11111222,11111222,11144222' 
ADCP,ioos:station:wmo:42362:1,2016-12-03T04:30:00Z,27.7950,-90.6480,122.0,11.5,108.0,99.0,'11111222,11111222,11144222' 
ADCP,ioos:station:wmo:42362:1,2016-12-03T05:30:00Z,27.7950,-90.6480,122.0,11.6,112.0,99.0,'11111222,11111222,11144222' 
ADCP,ioos:station:wmo:42362:1,2016-12-03T06:30:00Z,27.7950,-90.6480,122.0,10.9,121.0,99.0,'11111222,11111222,11144222' 
ADCP,ioos:station:wmo:42362:1,2016-12-03T07:30:00Z,27.7950,-90.6480,122.0,10.4,125.0,99.0,'11111222,11111222,11144222' 
ADCP,ioos:station:wmo:42362:1,2016-12-03T08:30:00Z,27.7950,-90.6480,122.0,10.7,126.0,99.0,'11111222,11111222,11144222' 
ADCP,ioos:station:wmo:42362:1,2016-12-03T09:30:00Z,27.7950,-90.6480,122.0,12.6,133.0,99.0,'11111222,11111222,11144222' 
ADCP,ioos:station:wmo:42362:1,2016-12-03T10:30:00Z,27.7950,-90.6480,122.0,13.8,137.0,99.0,'11111222,11111222,11144222' 
ADCP,ioos:station:wmo:42362:1,2016-12-03T11:30:00Z,27.7950,-90.6480,122.0,14.1,139.0,99.0,'11111222,11111222,11144222' 
ADCP,ioos:station:wmo:42362:1,2016-12-03T12:30:00Z,27.7950,-90.6480,122.0,13.7,140.0,99.0,'11111222,11111222,11144222' 
ADCP,ioos:station:wmo:42362:1,2016-12-03T13:30:00Z,27.7950,-90.6480,122.0,14.1,144.0,99.0,'11111222,11111222,11144222' 
ADCP,ioos:station:wmo:42362:1,2016-12-03T14:30:00Z,27.7950,-90.6480,122.0,14.0,144.0,99.0,'11111222,11111222,11144222' 
ADCP,ioos:station:wmo:42362:1,2016-12-03T15:30:00Z,27.7950,-90.6480,122.0,14.0,143.0,99.0,'11111222,11111222,11144222' 
ADCP,ioos:station:wmo:42362:1,2016-12-03T16:30:00Z,27.7950,-90.6480,122.0,12.8,147.0,99.0,'11111222,11111222,11144222' 
ADCP,ioos:station:wmo:42362:1,2016-12-03T17:30:00Z,27.7950,-90.6480,122.0,12.4,146.0,99.0,'11111222,11111222,11144222' 
ADCP,ioos:station:wmo:42362:1,2016-12-03T18:30:00Z,27.7950,-90.6480,122.0,13.0,150.0,99.0,'11111222,11111222,11144222' 
ADCP,ioos:station:wmo:42362:1,2016-12-03T19:30:00Z,27.7950,-90.6480,122.0,12.6,160.0,99.0,'11111222,11111222,11144222' 
ADCP,ioos:station:wmo:42362:1,2016-12-03T20:30:00Z,27.7950,-90.6480,122.0,12.3,160.0,99.0,'11111222,11111222,11144222' 
ADCP,ioos:station:wmo:42362:1,2016-12-03T21:30:00Z,27.7950,-90.6480,122.0,11.4,160.0,99.0,'11111222,11111222,11144222' 
ADCP,ioos:station:wmo:42362:1,2016-12-03T22:30:00Z,27.7950,-90.6480,122.0,11.3,160.0,99.0,'11111222,11111222,11144222' 
ADCP,ioos:station:wmo:42362:1,2016-12-03T23:30:00Z,27.7950,-90.6480,122.0,11.2,160.0,99.0,'11111222,11111222,11144222' 
ADCP,ioos:station:wmo:42362:1,2016-12-04T00:30:00Z,27.7950,-90.6480,122.0,11.2,158.0,99.0,'11111222,11111222,11144222' 
ADCP,ioos:station:wmo:42362:1,2016-12-04T01:30:00Z,27.7950,-90.6480,122.0,11.8,150.0,99.0,'11111222,11111222,11144222' 
ADCP,ioos:station:wmo:42362:1,2016-12-04T02:30:00Z,27.7950,-90.6480,122.0,11.7,161.0,99.0,'11111222,11111222,11144222' 
ADCP,ioos:station:wmo:42362:1,2016-12-04T03:30:00Z,27.7950,-90.6480,122.0,12.0,160.0,99.0,'11111222,11111222,11144222' 
ADCP,ioos:station:wmo:42362:1,2016-12-04T04:30:00Z,27.7950,-90.6480,122.0,10.6,166.0,99.0,'11111222,11111222,11144222' 
ADCP,ioos:station:wmo:42362:1,2016-12-04T05:30:00Z,27.7950,-90.6480,122.0,10.4,172.0,99.0,'11111222,11111222,11144222' 
ADCP,ioos:station:wmo:42362:1,2016-12-04T06:30:00Z,27.7950,-90.6480,122.0,13.7,176.0,99.0,'11111222,11111222,11144222' 
ADCP,ioos:station:wmo:42362:1,2016-12-04T07:30:00Z,27.7950,-90.6480,122.0,13.9,184.0,99.0,'11111222,11111222,11144222' 
ADCP,ioos:station:wmo:42362:1,2016-12-04T08:30:00Z,27.7950,-90.6480,122.0,13.5,190.0,99.0,'11111222,11111222,11144222' 
ADCP,ioos:station:wmo:42362:1,2016-12-04T09:30:00Z,27.7950,-90.6480,122.0,11.7,193.0,99.0,'11111222,11111222,11144222' 
ADCP,ioos:station:wmo:42362:1,2016-12-04T10:30:00Z,27.7950,-90.6480,122.0,11.4,191.0,99.0,'11111222,11111222,11144222' 
ADCP,ioos:station:wmo:42362:1,2016-12-04T11:30:00Z,27.7950,-90.6480,122.0,11.1,199.0,99.0,'11111222,11111222,11144222' 
ADCP,ioos:station:wmo:42362:1,2016-12-04T12:30:00Z,27.7950,-90.6480,122.0,11.0,201.0,99.0,'11111222,11111222,11144222' 
ADCP,ioos:station:wmo:42362:1,2016-12-04T13:30:00Z,27.7950,-90.6480,122.0,10.6,200.0,99.0,'11111222,11111222,11144222' 
ADCP,ioos:station:wmo:42362:1,2016-12-04T14:30:00Z,27.7950,-90.6480,122.0,10.0,201.0,99.0,'11111222,11111222,11144222' 
ADCP,ioos:station:wmo:42362:1,2016-12-04T15:30:00Z,27.7950,-90.6480,122.0,11.4,190.0,99.0,'11111222,11111222,11144222' 
ADCP,ioos:station:wmo:42362:1,2016-12-04T16:30:00Z,27.7950,-90.6480,122.0,9.8,188.0,99.0,'11111222,11111222,11144222' 
ADCP,ioos:station:wmo:42362:1,2016-12-04T17:30:00Z,27.7950,-90.6480,122.0,10.8,190.0,99.0,'11111222,11111222,11144222' 
ADCP,ioos:station:wmo:42362:1,2016-12-04T18:30:00Z,27.7950,-90.6480,122.0,10.1,190.0,99.0,'11111222,11111222,11144222' 
ADCP,ioos:station:wmo:42362:1,2016-12-04T19:30:00Z,27.7950,-90.6480,122.0,7.7,192.0,99.0,'11111222,11111222,11144222' 
ADCP,ioos:station:wmo:42362:1,2016-12-04T20:30:00Z,27.7950,-90.6480,122.0,9.9,200.0,99.0,'11111222,11111222,11144222' 
ADCP,ioos:station:wmo:42362:1,2016-12-04T21:30:00Z,27.7950,-90.6480,122.0,10.0,206.0,99.0,'11111222,11111222,11144222' 
ADCP,ioos:station:wmo:42362:1,2016-12-04T22:30:00Z,27.7950,-90.6480,122.0,9.5,215.0,99.0,'11111222,11111222,11144222' 
ADCP,ioos:station:wmo:42362:1,2016-12-04T23:30:00Z,27.7950,-90.6480,122.0,99.0,-9999.0,99.0,'11144222,99999999,11144222' 
ADCP,ioos:station:wmo:42362:1,2016-12-05T00:30:00Z,27.7950,-90.6480,122.0,6.7,221.0,99.0,'11111222,11111222,11144222' 
ADCP,ioos:station:wmo:42362:1,2016-12-05T01:30:00Z,27.7950,-90.6480,122.0,99.0,210.0,99.0,'11144222,11111222,11144222' 
ADCP,ioos:station:wmo:42362:1,2016-12-05T02:30:00Z,27.7950,-90.6480,122.0,8.4,289.0,99.0,'11111222,11111222,11144222' 
ADCP,ioos:station:wmo:42362:1,2016-12-05T03:30:00Z,27.7950,-90.6480,122.0,13.6,53.0,99.0,'11111222,11111222,11144222' 
ADCP,ioos:station:wmo:42362:1,2016-12-05T04:30:00Z,27.7950,-90.6480,122.0,12.9,65.0,99.0,'11111222,11111222,11144222' 
ADCP,ioos:station:wmo:42362:1,2016-12-05T05:30:00Z,27.7950,-90.6480,122.0,13.7,72.0,99.0,'11111222,11111222,11144222' 
ADCP,ioos:station:wmo:42362:1,2016-12-05T06:30:00Z,27.7950,-90.6480,122.0,12.7,86.0,99.0,'11111222,11111222,11144222' 
ADCP,ioos:station:wmo:42362:1,2016-12-05T07:30:00Z,27.7950,-90.6480,122.0,12.0,101.0,99.0,'11111222,11111222,11144222' 
ADCP,ioos:station:wmo:42362:1,2016-12-05T08:30:00Z,27.7950,-90.6480,122.0,10.4,112.0,99.0,'11111222,11111222,11144222' 
ADCP,ioos:station:wmo:42362:1,2016-12-05T09:30:00Z,27.7950,-90.6480,122.0,8.6,121.0,99.0,'11111222,11111222,11144222' 
ADCP,ioos:station:wmo:42362:1,2016-12-05T10:30:00Z,27.7950,-90.6480,122.0,9.0,115.0,99.0,'11111222,11111222,11144222' 
ADCP,ioos:station:wmo:42362:1,2016-12-05T11:30:00Z,27.7950,-90.6480,122.0,7.1,124.0,99.0,'11111222,11111222,11144222' 
ADCP,ioos:station:wmo:42362:1,2016-12-05T12:30:00Z,27.7950,-90.6480,122.0,8.1,136.0,99.0,'11111222,11111222,11144222' 
ADCP,ioos:station:wmo:42362:1,2016-12-05T13:30:00Z,27.7950,-90.6480,122.0,9.0,167.0,99.0,'11111222,11111222,11144222' 
ADCP,ioos:station:wmo:42362:1,2016-12-05T14:30:00Z,27.7950,-90.6480,122.0,9.2,170.0,99.0,'11111222,11111222,11144222' 
ADCP,ioos:station:wmo:42362:1,2016-12-05T15:30:00Z,27.7950,-90.6480,122.0,9.5,173.0,99.0,'11111222,11111222,11144222' 
ADCP,ioos:station:wmo:42362:1,2016-12-05T16:30:00Z,27.7950,-90.6480,122.0,12.5,189.0,99.0,'11111222,11111222,11144222' 
ADCP,ioos:station:wmo:42362:1,2016-12-05T17:30:00Z,27.7950,-90.6480,122.0,12.2,201.0,99.0,'11111222,11111222,11144222' 
ADCP,ioos:station:wmo:42362:1,2016-12-05T18:30:00Z,27.7950,-90.6480,122.0,12.3,216.0,99.0,'11111222,11111222,11144222' 
ADCP,ioos:station:wmo:42362:1,2016-12-05T19:30:00Z,27.7950,-90.6480,122.0,99.0,327.0,99.0,'11144222,11111222,11144222' 
ADCP,ioos:station:wmo:42362:1,2016-12-05T20:30:00Z,27.7950,-90.6480,122.0,10.5,170.0,99.0,'11111222,11111222,11144222' 
ADCP,ioos:station:wmo:42362:1,2016-12-05T21:30:00Z,27.7950,-90.6480,122.0,99.0,109.0,99.0,'11144222,11111222,11144222' 
ADCP,ioos:station:wmo:42362:1,2016-12-05T22:30:00Z,27.7950,-90.6480,122.0,10.3,168.0,99.0,'11111222,11111222,11144222' 
ADCP,ioos:station:wmo:42362:1,2016-12-05T23:30:00Z,27.7950,-90.6480,122.0,11.4,221.0,99.0,'11111222,11111222,11144222' 
ADCP,ioos:station:wmo:42362:1,2016-12-06T00:30:00Z,27.7950,-90.6480,122.0,12.2,213.0,99.0,'11111222,11111222,11144222' 
ADCP,ioos:station:wmo:42362:1,2016-12-06T01:30:00Z,27.7950,-90.6480,122.0,99.0,258.0,99.0,'11144222,11111222,11144222' 
ADCP,ioos:station:wmo:42362:1,2016-12-06T02:30:00Z,27.7950,-90.6480,122.0,12.7,276.0,99.0,'11111222,11111222,11144222' 
ADCP,ioos:station:wmo:42362:1,2016-12-06T03:30:00Z,27.7950,-90.6480,122.0,13.5,278.0,99.0,'11111222,11111222,11144222' 
ADCP,ioos:station:wmo:42362:1,2016-12-06T04:30:00Z,27.7950,-90.6480,122.0,13.0,283.0,99.0,'11111222,11111222,11144222' 
ADCP,ioos:station:wmo:42362:1,2016-12-06T05:30:00Z,27.7950,-90.6480,122.0,13.8,288.0,99.0,'11111222,11111222,11144222' 
ADCP,ioos:station:wmo:42362:1,2016-12-06T06:30:00Z,27.7950,-90.6480,122.0,14.4,291.0,99.0,'11111222,11111222,11144222' 
ADCP,ioos:station:wmo:42362:1,2016-12-06T07:30:00Z,27.7950,-90.6480,122.0,14.1,291.0,99.0,'11111222,11111222,11144222' 
ADCP,ioos:station:wmo:42362:1,2016-12-06T08:30:00Z,27.7950,-90.6480,122.0,13.1,294.0,99.0,'11111222,11111222,11144222' 
ADCP,ioos:station:wmo:42362:1,2016-12-06T09:30:00Z,27.7950,-90.6480,122.0,13.4,292.0,99.0,'11111222,11111222,11144222' 
ADCP,ioos:station:wmo:42362:1,2016-12-06T10:30:00Z,27.7950,-90.6480,122.0,13.2,294.0,99.0,'11111222,11111222,11144222' 
ADCP,ioos:station:wmo:42362:1,2016-12-06T11:30:00Z,27.7950,-90.6480,122.0,12.8,298.0,99.0,'11111222,11111222,11144222' 
ADCP,ioos:station:wmo:42362:1,2016-12-06T12:30:00Z,27.7950,-90.6480,122.0,12.0,304.0,99.0,'11111222,11111222,11144222' 
ADCP,ioos:station:wmo:42362:1,2016-12-06T13:30:00Z,27.7950,-90.6480,122.0,99.0,-9999.0,99.0,'11144222,99999999,11144222' 
ADCP,ioos:station:wmo:42362:1,2016-12-06T14:30:00Z,27.7950,-90.6480,122.0,9.3,310.0,99.0,'11111222,11111222,11144222' 
ADCP,ioos:station:wmo:42362:1,2016-12-06T15:30:00Z,27.7950,-90.6480,122.0,11.6,339.0,99.0,'11111222,11111222,11144222' 
ADCP,ioos:station:wmo:42362:1,2016-12-06T16:30:00Z,27.7950,-90.6480,122.0,7.9,321.0,99.0,'11111222,11111222,11144222' 
ADCP,ioos:station:wmo:42362:1,2016-12-06T17:30:00Z,27.7950,-90.6480,122.0,7.5,316.0,99.0,'11111222,11111222,11144222' 
ADCP,ioos:station:wmo:42362:1,2016-12-06T18:30:00Z,27.7950,-90.6480,122.0,6.7,314.0,99.0,'11111222,11111222,11144222' 
ADCP,ioos:station:wmo:42362:1,2016-12-06T19:30:00Z,27.7950,-90.6480,122.0,5.8,326.0,99.0,'11111222,11111222,11144222' 
ADCP,ioos:station:wmo:42362:1,2016-12-06T20:30:00Z,27.7950,-90.6480,122.0,5.4,339.0,99.0,'11111222,11111222,11144222' 
ADCP,ioos:station:wmo:42362:1,2016-12-06T21:30:00Z,27.7950,-90.6480,122.0,4.1,337.0,99.0,'11111222,11111222,11144222' 
ADCP,ioos:station:wmo:42362:1,2016-12-06T22:30:00Z,27.7950,-90.6480,122.0,3.1,342.0,99.0,'11111222,11111222,11144222' 
ADCP,ioos:station:wmo:42362:1,2016-12-06T23:30:00Z,27.7950,-90.6480,122.0,2.3,343.0,99.0,'11111222,11111222,11144222' 
ADCP,ioos:station:wmo:42362:1,2016-12-07T00:30:00Z,27.7950,-90.6480,122.0,2.2,347.0,99.0,'11111222,11111222,11144222' 
ADCP,ioos:station:wmo:42362:1,2016-12-07T01:30:00Z,27.7950,-90.6480,122.0,2.4,342.0,99.0,'11111222,11111222,11144222' 
ADCP,ioos:station:wmo:42362:1,2016-12-07T02:30:00Z,27.7950,-90.6480,122.0,2.3,353.0,99.0,'11111222,11111222,11144222' 
ADCP,ioos:station:wmo:42362:1,2016-12-07T03:30:00Z,27.7950,-90.6480,122.0,1.7,358.0,99.0,'11111222,11111222,11144222' 
ADCP,ioos:station:wmo:42362:1,2016-12-07T04:30:00Z,27.7950,-90.6480,122.0,0.8,4.0,99.0,'11111222,11111222,11144222' 
ADCP,ioos:station:wmo:42362:1,2016-12-07T05:30:00Z,27.7950,-90.6480,122.0,0.1,1.0,99.0,'11111222,11111222,11144222' 
ADCP,ioos:station:wmo:42362:1,2016-12-07T06:30:00Z,27.7950,-90.6480,122.0,0.3,20.0,99.0,'11111222,11111222,11144222' 
ADCP,ioos:station:wmo:42362:1,2016-12-07T07:30:00Z,27.7950,-90.6480,122.0,0.7,63.0,99.0,'11111222,11111222,11144222' 
ADCP,ioos:station:wmo:42362:1,2016-12-07T08:30:00Z,27.7950,-90.6480,122.0,2.2,130.0,99.0,'11111222,11111222,11144222' 
ADCP,ioos:station:wmo:42362:1,2016-12-07T09:30:00Z,27.7950,-90.6480,122.0,3.3,184.0,99.0,'11111222,11111222,11144222' 
ADCP,ioos:station:wmo:42362:1,2016-12-07T10:30:00Z,27.7950,-90.6480,122.0,3.2,170.0,99.0,'11111222,11111222,11144222' 
ADCP,ioos:station:wmo:42362:1,2016-12-07T11:30:00Z,27.7950,-90.6480,122.0,2.5,146.0,99.0,'11111222,11111222,11144222' 
ADCP,ioos:station:wmo:42362:1,2016-12-07T12:30:00Z,27.7950,-90.6480,122.0,2.5,146.0,99.0,'11111222,11111222,11144222' 
ADCP,ioos:station:wmo:42362:1,2016-12-07T13:30:00Z,27.7950,-90.6480,122.0,3.4,163.0,99.0,'11111222,11111222,11144222' 
ADCP,ioos:station:wmo:42362:1,2016-12-07T14:30:00Z,27.7950,-90.6480,122.0,3.3,155.0,99.0,'11111222,11111222,11144222' 
ADCP,ioos:station:wmo:42362:1,2016-12-07T15:30:00Z,27.7950,-90.6480,122.0,3.3,150.0,99.0,'11111222,11111222,11144222' 
ADCP,ioos:station:wmo:42362:1,2016-12-07T16:30:00Z,27.7950,-90.6480,122.0,3.2,163.0,99.0,'11111222,11111222,11144222' 
ADCP,ioos:station:wmo:42362:1,2016-12-07T17:30:00Z,27.7950,-90.6480,122.0,3.0,185.0,99.0,'11111222,11111222,11144222' 
ADCP,ioos:station:wmo:42362:1,2016-12-07T18:30:00Z,27.7950,-90.6480,122.0,3.3,155.0,99.0,'11111222,11111222,11144222' 
ADCP,ioos:station:wmo:42362:1,2016-12-07T19:30:00Z,27.7950,-90.6480,122.0,3.3,146.0,99.0,'11111222,11111222,11144222' 
ADCP,ioos:station:wmo:42362:1,2016-12-07T20:30:00Z,27.7950,-90.6480,122.0,3.4,146.0,99.0,'11111222,11111222,11144222' 
ADCP,ioos:station:wmo:42362:1,2016-12-07T21:30:00Z,27.7950,-90.6480,122.0,3.8,147.0,99.0,'11111222,11111222,11144222' 
ADCP,ioos:station:wmo:42362:1,2016-12-07T22:30:00Z,27.7950,-90.6480,122.0,3.3,154.0,99.0,'11111222,11111222,11144222' 
ADCP,ioos:station:wmo:42362:1,2016-12-07T23:30:00Z,27.7950,-90.6480,122.0,4.1,145.0,99.0,'11111222,11111222,11144222' 
ADCP,ioos:station:wmo:42362:1,2016-12-08T00:30:00Z,27.7950,-90.6480,122.0,3.5,132.0,99.0,'11111222,11111222,11144222' 
ADCP,ioos:station:wmo:42362:1,2016-12-08T01:30:00Z,27.7950,-90.6480,122.0,4.4,137.0,99.0,'11111222,11111222,11144222' 
ADCP,ioos:station:wmo:42362:1,2016-12-08T02:30:00Z,27.7950,-90.6480,122.0,4.2,127.0,99.0,'11111222,11111222,11144222' 
ADCP,ioos:station:wmo:42362:1,2016-12-08T03:30:00Z,27.7950,-90.6480,122.0,4.3,131.0,99.0,'11111222,11111222,11144222' 
ADCP,ioos:station:wmo:42362:1,2016-12-08T04:30:00Z,27.7950,-90.6480,122.0,3.8,127.0,99.0,'11111222,11111222,11144222' 
ADCP,ioos:station:wmo:42362:1,2016-12-08T05:30:00Z,27.7950,-90.6480,122.0,3.0,131.0,99.0,'11111222,11111222,11144222' 
ADCP,ioos:station:wmo:42362:1,2016-12-08T06:30:00Z,27.7950,-90.6480,122.0,2.7,106.0,99.0,'11111222,11111222,11144222' 
ADCP,ioos:station:wmo:42362:1,2016-12-08T07:30:00Z,27.7950,-90.6480,122.0,4.2,104.0,99.0,'11111222,11111222,11144222' 
ADCP,ioos:station:wmo:42362:1,2016-12-08T08:30:00Z,27.7950,-90.6480,122.0,7.2,101.0,99.0,'11111222,11111222,11144222' 
ADCP,ioos:station:wmo:42362:1,2016-12-08T09:30:00Z,27.7950,-90.6480,122.0,8.5,98.0,99.0,'11111222,11111222,11144222' 
ADCP,ioos:station:wmo:42362:1,2016-12-08T10:30:00Z,27.7950,-90.6480,122.0,7.7,93.0,99.0,'11111222,11111222,11144222' 
ADCP,ioos:station:wmo:42362:1,2016-12-08T11:30:00Z,27.7950,-90.6480,122.0,6.4,88.0,99.0,'11111222,11111222,11144222' 
ADCP,ioos:station:wmo:42362:1,2016-12-08T12:30:00Z,27.7950,-90.6480,122.0,8.4,103.0,99.0,'11111222,11111222,11144222' 
ADCP,ioos:station:wmo:42362:1,2016-12-08T13:30:00Z,27.7950,-90.6480,122.0,8.4,108.0,99.0,'11111222,11111222,11144222' 
ADCP,ioos:station:wmo:42362:1,2016-12-08T14:30:00Z,27.7950,-90.6480,122.0,8.9,104.0,99.0,'11111222,11111222,11144222' 
ADCP,ioos:station:wmo:42362:1,2016-12-08T15:30:00Z,27.7950,-90.6480,122.0,7.3,94.0,99.0,'11111222,11111222,11144222' 
ADCP,ioos:station:wmo:42362:1,2016-12-08T16:30:00Z,27.7950,-90.6480,122.0,8.6,88.0,99.0,'11111222,11111222,11144222' 
ADCP,ioos:station:wmo:42362:1,2016-12-08T17:30:00Z,27.7950,-90.6480,122.0,14.2,66.0,99.0,'11111222,11111222,11144222' 
ADCP,ioos:station:wmo:42362:1,2016-12-08T18:30:00Z,27.7950,-90.6480,122.0,15.8,60.0,99.0,'11111222,11111222,11144222' 
ADCP,ioos:station:wmo:42362:1,2016-12-08T19:30:00Z,27.7950,-90.6480,122.0,15.5,61.0,99.0,'11111222,11111222,11144222' 
ADCP,ioos:station:wmo:42362:1,2016-12-08T20:30:00Z,27.7950,-90.6480,122.0,15.5,62.0,99.0,'11111222,11111222,11144222' 
ADCP,ioos:station:wmo:42362:1,2016-12-08T21:30:00Z,27.7950,-90.6480,122.0,16.3,63.0,99.0,'11111222,11111222,11144222' 
ADCP,ioos:station:wmo:42362:1,2016-12-08T22:30:00Z,27.7950,-90.6480,122.0,15.6,64.0,99.0,'11111222,11111222,11144222' 
ADCP,ioos:station:wmo:42362:1,2016-12-08T23:30:00Z,27.7950,-90.6480,122.0,15.7,62.0,99.0,'11111222,11111222,11144222' 
ADCP,ioos:station:wmo:42362:1,2016-12-09T00:30:00Z,27.7950,-90.6480,122.0,17.0,63.0,99.0,'11111222,11111222,11144222' 
ADCP,ioos:station:wmo:42362:1,2016-12-09T01:30:00Z,27.7950,-90.6480,122.0,16.3,64.0,99.0,'11111222,11111222,11144222' 
ADCP,ioos:station:wmo:42362:1,2016-12-09T02:30:00Z,27.7950,-90.6480,122.0,16.6,61.0,99.0,'11111222,11111222,11144222' 
ADCP,ioos:station:wmo:42362:1,2016-12-09T03:30:00Z,27.7950,-90.6480,122.0,16.0,64.0,99.0,'11111222,11111222,11144222' 
ADCP,ioos:station:wmo:42362:1,2016-12-09T04:30:00Z,27.7950,-90.6480,122.0,16.4,69.0,99.0,'11111222,11111222,11144222' 
ADCP,ioos:station:wmo:42362:1,2016-12-09T05:30:00Z,27.7950,-90.6480,122.0,14.9,68.0,99.0,'11111222,11111222,11144222' 
ADCP,ioos:station:wmo:42362:1,2016-12-09T06:30:00Z,27.7950,-90.6480,122.0,14.1,68.0,99.0,'11111222,11111222,11144222' 